Weather History for KHJH - May, 2013

Change the Weather History Date:

Thursday, May 30, 2013

  Actual Average (KCNK) Record (KCNK)
Temperature  
Mean Temperature 70 °F 68 °F  
Max Temperature 81 °F 79 °F 102 °F (1998)
Min Temperature 59 °F 57 °F 39 °F (1889)
Degree Days  
Heating Degree Days 0 2  
Month to date heating degree days 129  
Since 1 July heating degree days 5393  
Cooling Degree Days 5 4  
Month to date cooling degree days 66  
Year to date cooling degree days 83  
Growing Degree Days 20 (Base 50)    
Moisture  
Dew Point 57 °F    
Average Humidity 73    
Maximum Humidity 87    
Minimum Humidity 42    
Precipitation  
Precipitation 0.06 in 0.15 in 2.10 in (1894)
Month to date precipitation 4.02  
Year to date precipitation 9.85  
Snow  
Snow 0.00 in 0.00 in T in (1970)
Month to date snowfall 0.0  
Year to date snowfall 13.7  
Since 1 July snowfall 20.2  
Snow Depth -    
Sea Level Pressure  
Sea Level Pressure 29.59 in    
Wind  
Wind Speed 9 mph (SSW)    
Max Wind Speed 28 mph    
Max Gust Speed 40 mph    
Visibility 10 miles    
Events Rain    
T = Trace of Precipitation, MM = Missing Value Source: NWS Daily Summary

Daily Weather History Graph

Daily Weather History Graph

Search for Another Location

Airport or City:

Trip Planner

Search our weather history database for the weather conditions in past years. The results will help you decide how hot, cold, wet, or windy it might be!

Date:

Astronomy

May. 30, 2013 Rise Set
Actual Time 6:03 AM CDT 8:52 PM CDT
Civil Twilight 5:31 AM CDT 9:24 PM CDT
Nautical Twilight 4:51 AM CDT 10:05 PM CDT
Astronomical Twilight 4:05 AM CDT 10:51 PM CDT
Moon 12:53 AM CDT (5/30) 12:14 PM CDT (5/30)
Length of Visible Light 15h 52m
Length of Day
14h 48m
Waning Gibbous, 62% of the Moon is Illuminated
May 30
Waning Gibbous
May 31
Last Quarter
Jun 8
New
Jun 16
First Quarter
Jun 23
Full

Hourly Weather History & Observations

Time (CDT) Temp. Heat Index Dew Point Humidity Pressure Visibility Wind Dir Wind Speed Gust Speed Precip Events Conditions
12:15 AM 61.9 °F - 56.7 °F 83% 29.59 in 10.0 mi North 9.2 mph - N/A   Scattered Clouds
12:35 AM 61.7 °F - 56.7 °F 84% 29.57 in 10.0 mi Calm Calm - N/A   Scattered Clouds
12:55 AM 61.3 °F - 57.0 °F 86% 29.56 in 10.0 mi East 8.1 mph - N/A   Clear
1:15 AM 61.3 °F - 56.8 °F 85% 29.53 in 10.0 mi ESE 12.7 mph - N/A   Clear
1:35 AM 61.7 °F - 57.0 °F 85% 29.53 in 10.0 mi SE 10.4 mph - N/A   Scattered Clouds
1:55 AM 61.5 °F - 57.2 °F 86% 29.56 in 10.0 mi NW 4.6 mph - N/A   Scattered Clouds
2:15 AM 61.3 °F - 57.2 °F 86% 29.57 in 10.0 mi Calm Calm - N/A   Clear
2:35 AM 61.2 °F - 57.4 °F 87% 29.60 in 10.0 mi SSW 8.1 mph - N/A   Mostly Cloudy
2:55 AM 62.1 °F - 57.4 °F 85% 29.63 in 10.0 mi SW 10.4 mph - N/A   Overcast
3:15 AM 62.6 °F - 57.2 °F 82% 29.60 in 10.0 mi SSW 10.4 mph - N/A   Scattered Clouds
3:35 AM 62.1 °F - 57.4 °F 85% 29.59 in 10.0 mi SSW 8.1 mph - N/A   Clear
3:55 AM 61.9 °F - 57.4 °F 85% 29.57 in 10.0 mi South 17.3 mph 21.9 mph N/A   Clear
4:15 AM 62.2 °F - 57.2 °F 84% 29.52 in 10.0 mi SSE 17.3 mph 25.3 mph N/A   Scattered Clouds
4:35 AM 63.0 °F - 55.6 °F 77% 29.49 in 10.0 mi South 21.9 mph 27.6 mph N/A   Mostly Cloudy
4:55 AM 66.7 °F - 50.5 °F 56% 29.53 in 10.0 mi SSW 26.5 mph 40.3 mph N/A Rain Light Rain
5:15 AM 63.3 °F - 54.9 °F 74% 29.54 in 10.0 mi South 15.0 mph - N/A Rain Light Rain
5:35 AM 61.7 °F - 55.9 °F 81% 29.55 in 10.0 mi SSE 17.3 mph 23.0 mph 0.01 in Rain Light Rain
5:55 AM 63.0 °F - 54.7 °F 74% 29.58 in 10.0 mi West 11.5 mph - 0.03 in Rain Light Rain
6:15 AM 61.9 °F - 55.6 °F 80% 29.58 in 10.0 mi Calm Calm - N/A   Scattered Clouds
6:35 AM 61.0 °F - 56.7 °F 86% 29.60 in 10.0 mi West 3.5 mph - N/A   Mostly Cloudy
6:55 AM 61.7 °F - 56.5 °F 83% 29.59 in 10.0 mi Calm Calm - N/A   Mostly Cloudy
7:15 AM 61.2 °F - 57.0 °F 86% 29.60 in 10.0 mi SSE 6.9 mph - N/A   Scattered Clouds
7:35 AM 61.7 °F - 57.2 °F 85% 29.60 in 10.0 mi South 4.6 mph - N/A   Clear
7:55 AM 61.7 °F - 56.7 °F 84% 29.60 in 10.0 mi South 5.8 mph - N/A   Clear
8:15 AM 61.3 °F - 56.7 °F 85% 29.61 in 10.0 mi South 4.6 mph - N/A   Clear
8:35 AM 61.3 °F - 57.0 °F 86% 29.60 in 10.0 mi South 4.6 mph - N/A   Clear
8:55 AM 61.7 °F - 57.2 °F 85% 29.59 in 10.0 mi Calm Calm - N/A   Clear
9:15 AM 62.6 °F - 57.6 °F 84% 29.62 in 10.0 mi SW 6.9 mph - N/A   Clear
9:35 AM 63.1 °F - 57.2 °F 81% 29.61 in 10.0 mi South 6.9 mph - N/A   Scattered Clouds
9:55 AM 64.0 °F - 57.7 °F 80% 29.61 in 10.0 mi SW 6.9 mph - N/A   Mostly Cloudy
10:15 AM 64.4 °F - 58.3 °F 80% 29.61 in 10.0 mi WSW 10.4 mph - N/A   Mostly Cloudy
10:35 AM 65.8 °F - 58.3 °F 77% 29.61 in 10.0 mi WSW 13.8 mph - N/A   Scattered Clouds
10:55 AM 67.1 °F - 58.6 °F 74% 29.61 in 10.0 mi WSW 13.8 mph 18.4 mph N/A   Scattered Clouds
11:15 AM 68.0 °F - 58.8 °F 72% 29.60 in 10.0 mi WSW 12.7 mph 20.7 mph N/A   Mostly Cloudy
11:35 AM 68.7 °F - 58.5 °F 70% 29.59 in 10.0 mi WSW 15.0 mph 19.6 mph N/A   Mostly Cloudy
11:55 AM 69.6 °F - 59.4 °F 70% 29.60 in 10.0 mi SW 12.7 mph 21.9 mph N/A   Mostly Cloudy
12:15 PM 70.7 °F - 59.9 °F 69% 29.60 in 10.0 mi SW 12.7 mph 20.7 mph N/A   Mostly Cloudy
12:35 PM 71.4 °F - 60.1 °F 67% 29.61 in 10.0 mi SW 15.0 mph 20.7 mph N/A   Mostly Cloudy
12:55 PM 72.1 °F - 60.8 °F 67% 29.61 in 10.0 mi SSW 17.3 mph 23.0 mph N/A   Mostly Cloudy
1:15 PM 73.2 °F - 60.6 °F 65% 29.59 in 10.0 mi SW 16.1 mph 19.6 mph N/A   Mostly Cloudy
1:35 PM 73.6 °F - 61.7 °F 66% 29.59 in 10.0 mi SW 15.0 mph 21.9 mph N/A   Scattered Clouds
1:55 PM 73.6 °F - 60.3 °F 63% 29.59 in 10.0 mi SSW 16.1 mph 24.2 mph N/A   Scattered Clouds
2:15 PM 74.5 °F - 60.6 °F 62% 29.59 in 10.0 mi SW 15.0 mph 21.9 mph N/A   Scattered Clouds
2:35 PM 75.2 °F - 60.4 °F 60% 29.59 in 10.0 mi SW 16.1 mph 20.7 mph N/A   Scattered Clouds
2:55 PM 76.1 °F - 60.8 °F 59% 29.57 in 10.0 mi SW 13.8 mph 21.9 mph N/A   Scattered Clouds
3:15 PM 76.6 °F - 61.0 °F 58% 29.57 in 10.0 mi SW 10.4 mph 21.9 mph N/A   Clear
3:35 PM 77.2 °F - 60.4 °F 56% 29.57 in 10.0 mi SSW 12.7 mph 21.9 mph N/A   Clear
3:55 PM 78.3 °F - 60.1 °F 53% 29.57 in 10.0 mi SSW 16.1 mph 19.6 mph N/A   Clear
4:15 PM 78.8 °F - 61.0 °F 54% 29.56 in 10.0 mi SW 11.5 mph 18.4 mph N/A   Clear
4:35 PM 79.5 °F - 59.5 °F 50% 29.56 in 10.0 mi SW 12.7 mph 18.4 mph N/A   Clear
4:55 PM 80.1 °F 80.8 °F 59.5 °F 49% 29.56 in 10.0 mi SSW 12.7 mph 21.9 mph N/A   Clear
5:15 PM 81.0 °F 80.8 °F 56.1 °F 42% 29.56 in 10.0 mi SW 12.7 mph 19.6 mph N/A   Clear
5:35 PM 78.4 °F - 58.1 °F 50% 29.57 in 10.0 mi SSW 13.8 mph 19.6 mph N/A   Clear
5:55 PM 76.5 °F - 54.0 °F 46% 29.57 in 10.0 mi SSW 15.0 mph - N/A   Clear
6:15 PM 67.5 °F - 54.1 °F 62% 29.59 in 10.0 mi WSW 27.6 mph 36.8 mph N/A Rain Light Rain
6:35 PM 64.8 °F - 55.0 °F 71% 29.63 in 7.0 mi West 18.4 mph 31.1 mph 0.02 in Rain Light Rain
6:55 PM 66.2 °F - 54.5 °F 66% 29.62 in 10.0 mi West 6.9 mph - 0.03 in   Scattered Clouds
7:15 PM 66.7 °F - 55.0 °F 66% 29.61 in 10.0 mi Calm Calm - N/A   Clear
7:35 PM 67.1 °F - 54.9 °F 65% 29.61 in 10.0 mi West 3.5 mph - N/A   Clear
7:55 PM 66.6 °F - 55.6 °F 68% 29.62 in 10.0 mi Calm Calm - N/A   Clear
8:15 PM 66.7 °F - 55.4 °F 67% 29.61 in 10.0 mi Calm Calm - N/A   Clear
8:35 PM 65.1 °F - 56.1 °F 73% 29.61 in 10.0 mi South 4.6 mph - N/A   Clear
8:55 PM 63.9 °F - 55.4 °F 74% 29.64 in 10.0 mi SSW 5.8 mph - N/A   Clear
9:15 PM 63.0 °F - 55.8 °F 77% 29.64 in 10.0 mi SSW 8.1 mph - N/A   Clear
9:35 PM 63.3 °F - 55.0 °F 74% 29.64 in 10.0 mi South 5.8 mph - N/A   Clear
9:55 PM 62.8 °F - 54.5 °F 74% 29.65 in 10.0 mi SSW 5.8 mph - N/A   Clear
10:15 PM 62.1 °F - 53.8 °F 74% 29.64 in 10.0 mi South 4.6 mph - N/A   Clear
10:35 PM 60.1 °F - 54.9 °F 83% 29.65 in 10.0 mi Calm Calm - N/A   Clear
10:55 PM 59.7 °F - 54.0 °F 81% 29.65 in 10.0 mi SSE 4.6 mph - N/A   Clear
11:15 PM 60.3 °F - 52.7 °F 76% 29.66 in 10.0 mi South 5.8 mph - N/A   Clear
11:35 PM 62.8 °F - 52.0 °F 68% 29.67 in 10.0 mi SSW 10.4 mph - N/A   Clear
11:55 PM 63.1 °F - 51.8 °F 66% 29.68 in 10.0 mi SSW 10.4 mph - N/A   Clear